timestamp,wind_dir_avg,wind_spd_avg,wind_spd_max_dir,wind_spd_gust,battery_voltage,lat,long
2020-12-01 00:04:01+00:00,271.0,1.96,274.0,2.38,12.49,47.59359,-54.27349
2020-12-01 00:14:01+00:00,290.0,0.59,288.0,0.83,12.41,47.59359,-54.27349
2020-12-01 00:24:01+00:00,135.0,0.02,155.0,0.15,12.41,47.59359,-54.27349
2020-12-01 00:34:01+00:00,41.0,0.68,36.0,0.85,12.41,47.59359,-54.27349
2020-12-01 00:44:01+00:00,28.0,2.13,23.0,2.55,12.41,47.59359,-54.27349
2020-12-01 00:54:01+00:00,44.0,1.6,47.0,2.05,12.41,47.59359,-54.27349
2020-12-01 01:04:01+00:00,73.0,1.41,75.0,1.88,12.41,47.59359,-54.27349
2020-12-01 01:14:01+00:00,18.0,2.15,12.0,3.02,12.25,47.59359,-54.27349
2020-12-01 01:24:01+00:00,33.0,2.04,36.0,2.45,12.25,47.59359,-54.27349
2020-12-01 01:34:01+00:00,23.0,1.92,22.0,2.26,12.25,47.59359,-54.27349
2020-12-01 01:44:01+00:00,9.0,1.89,6.0,2.28,12.25,47.59359,-54.27349
2020-12-01 01:54:01+00:00,29.0,0.96,28.0,1.53,12.25,47.59359,-54.27349
2020-12-01 02:04:01+00:00,77.0,1.51,71.0,1.93,12.25,47.59359,-54.27349
2020-12-01 02:14:01+00:00,78.0,1.74,85.0,2.21,12.49,47.59359,-54.27349
2020-12-01 02:24:01+00:00,63.0,1.25,62.0,1.42,12.49,47.59359,-54.27349
2020-12-01 02:34:01+00:00,61.0,1.47,65.0,1.85,12.49,47.59359,-54.27349
2020-12-01 02:44:01+00:00,77.0,2.37,74.0,2.96,12.49,47.59359,-54.27349
2020-12-01 02:54:01+00:00,86.0,1.48,89.0,1.64,12.49,47.59359,-54.27349
2020-12-01 03:04:01+00:00,86.0,1.12,88.0,1.55,12.49,47.59359,-54.27349
2020-12-01 03:14:01+00:00,140.0,1.47,141.0,1.95,12.41,47.59359,-54.27349
2020-12-01 03:24:01+00:00,189.0,1.77,202.0,2.05,12.41,47.59359,-54.27349
2020-12-01 03:34:01+00:00,176.0,3.19,179.0,3.83,12.41,47.59359,-54.27349
2020-12-01 03:44:01+00:00,170.0,4.73,165.0,5.5,12.41,47.59359,-54.27349
2020-12-01 03:54:01+00:00,171.0,4.11,168.0,4.67,12.41,47.59359,-54.27349
2020-12-01 04:04:01+00:00,165.0,4.67,165.0,5.32,12.41,47.59359,-54.27349
2020-12-01 04:14:01+00:00,171.0,4.48,177.0,5.29,12.41,47.59359,-54.27349
2020-12-01 04:24:01+00:00,177.0,5.37,176.0,5.92,12.41,47.59359,-54.27349
2020-12-01 04:34:01+00:00,174.0,5.28,175.0,5.91,12.41,47.59359,-54.27349
2020-12-01 04:44:01+00:00,177.0,5.61,174.0,6.06,12.41,47.59359,-54.27349
2020-12-01 04:54:01+00:00,174.0,5.58,170.0,6.41,12.41,47.59359,-54.27349
2020-12-01 05:04:01+00:00,162.0,5.68,165.0,6.33,12.41,47.59359,-54.27349
2020-12-01 05:14:01+00:00,176.0,5.63,179.0,6.45,12.41,47.59359,-54.27349
2020-12-01 05:24:01+00:00,173.0,6.56,168.0,7.29,12.41,47.59359,-54.27349
2020-12-01 05:34:01+00:00,177.0,4.96,182.0,5.77,12.41,47.59359,-54.27349
2020-12-01 05:44:01+00:00,177.0,5.38,175.0,5.89,12.41,47.59359,-54.27349
2020-12-01 05:54:01+00:00,180.0,6.23,179.0,6.62,12.41,47.59359,-54.27349
2020-12-01 06:04:01+00:00,178.0,5.42,179.0,5.8,12.41,47.59359,-54.27349
2020-12-01 06:14:01+00:00,175.0,4.91,178.0,5.3,12.41,47.59359,-54.27349
2020-12-01 06:24:01+00:00,191.0,4.93,191.0,5.69,12.41,47.59359,-54.27349
2020-12-01 06:34:01+00:00,185.0,5.15,190.0,5.82,12.41,47.59359,-54.27349
2020-12-01 06:44:01+00:00,182.0,5.39,182.0,6.03,12.41,47.59359,-54.27349
2020-12-01 06:54:01+00:00,182.0,4.85,182.0,5.31,12.41,47.59359,-54.27349
2020-12-01 07:04:01+00:00,185.0,4.64,186.0,5.16,12.41,47.59359,-54.27349
2020-12-01 07:14:01+00:00,181.0,4.33,182.0,5.11,12.41,47.59359,-54.27349
2020-12-01 07:24:01+00:00,183.0,4.32,184.0,5.1,12.41,47.59359,-54.27349
2020-12-01 07:34:01+00:00,181.0,4.31,189.0,4.97,12.41,47.59359,-54.27349
2020-12-01 07:44:01+00:00,174.0,4.7,174.0,5.21,12.41,47.59359,-54.27349
2020-12-01 07:54:01+00:00,183.0,4.47,184.0,5.21,12.41,47.59359,-54.27349
2020-12-01 08:04:01+00:00,175.0,5.44,171.0,6.48,12.41,47.59359,-54.27349
2020-12-01 08:14:01+00:00,175.0,4.86,176.0,6.23,12.41,47.59359,-54.27349
2020-12-01 08:24:01+00:00,182.0,5.43,184.0,6.1,12.41,47.59359,-54.27349
2020-12-01 08:34:01+00:00,187.0,5.3,190.0,5.9,12.41,47.59359,-54.27349
2020-12-01 08:44:01+00:00,183.0,4.35,182.0,5.43,12.41,47.59359,-54.27349
2020-12-01 08:54:01+00:00,176.0,5.47,179.0,6.5,12.41,47.59359,-54.27349
2020-12-01 09:04:01+00:00,183.0,5.76,182.0,6.25,12.41,47.59359,-54.27349
2020-12-01 09:14:01+00:00,182.0,7.25,182.0,8.17,12.41,47.59359,-54.27349
2020-12-01 09:24:01+00:00,182.0,5.29,186.0,6.16,12.41,47.59359,-54.27349
2020-12-01 09:34:01+00:00,180.0,5.07,169.0,5.66,12.41,47.59359,-54.27349
2020-12-01 09:44:01+00:00,187.0,5.16,186.0,5.79,12.41,47.59359,-54.27349
2020-12-01 09:54:01+00:00,181.0,5.56,183.0,6.51,12.41,47.59359,-54.27349
2020-12-01 10:04:01+00:00,176.0,5.39,174.0,6.2,12.41,47.59359,-54.27349
2020-12-01 10:14:01+00:00,177.0,4.05,177.0,4.78,12.41,47.59359,-54.27349
2020-12-01 10:24:01+00:00,180.0,4.09,177.0,4.73,12.41,47.59359,-54.27349
2020-12-01 10:34:01+00:00,177.0,6.28,177.0,7.0,12.41,47.59359,-54.27349
2020-12-01 10:44:01+00:00,180.0,5.59,180.0,6.33,12.41,47.59359,-54.27349
2020-12-01 10:54:01+00:00,175.0,4.79,174.0,5.53,12.41,47.59359,-54.27349
2020-12-01 11:04:01+00:00,175.0,4.68,177.0,5.54,12.41,47.59359,-54.27349
2020-12-01 11:14:01+00:00,169.0,4.52,168.0,5.35,12.49,47.59359,-54.27349
2020-12-01 11:24:01+00:00,166.0,5.82,164.0,6.23,12.49,47.59359,-54.27349
2020-12-01 11:34:01+00:00,175.0,5.1,177.0,5.99,12.49,47.59359,-54.27349
2020-12-01 11:44:01+00:00,170.0,5.73,173.0,6.35,12.49,47.59359,-54.27349
2020-12-01 11:54:01+00:00,165.0,5.3,168.0,5.94,12.49,47.59359,-54.27349
2020-12-01 12:04:01+00:00,171.0,5.31,173.0,6.06,12.49,47.59359,-54.27349
2020-12-01 12:14:01+00:00,174.0,4.28,174.0,4.85,13.21,47.59359,-54.27349
2020-12-01 12:24:01+00:00,170.0,3.76,174.0,4.28,13.21,47.59359,-54.27349
2020-12-01 12:34:01+00:00,172.0,3.71,177.0,4.46,13.21,47.59359,-54.27349
2020-12-01 12:44:01+00:00,168.0,4.09,163.0,4.66,13.21,47.59359,-54.27349
2020-12-01 12:54:01+00:00,163.0,4.21,162.0,4.88,13.21,47.59359,-54.27349
2020-12-01 13:04:01+00:00,161.0,4.18,167.0,4.82,13.21,47.59359,-54.27349
2020-12-01 13:14:01+00:00,151.0,4.98,151.0,6.03,13.6,47.59359,-54.27349
2020-12-01 13:24:01+00:00,157.0,4.78,159.0,5.29,13.6,47.59359,-54.27349
2020-12-01 13:34:01+00:00,167.0,5.24,163.0,5.79,13.6,47.59359,-54.27349
2020-12-01 13:44:01+00:00,171.0,4.65,169.0,5.3,13.6,47.59359,-54.27349
2020-12-01 13:54:01+00:00,176.0,4.05,178.0,4.95,13.6,47.59359,-54.27349
2020-12-01 14:04:01+00:00,169.0,3.7,174.0,4.04,13.6,47.59359,-54.27349
2020-12-01 14:14:01+00:00,176.0,3.3,177.0,3.59,13.76,47.59359,-54.27349
2020-12-01 14:24:01+00:00,158.0,3.01,156.0,3.27,13.76,47.59359,-54.27349
2020-12-01 14:34:01+00:00,167.0,3.8,164.0,4.47,13.76,47.59359,-54.27349
2020-12-01 14:44:01+00:00,177.0,4.19,179.0,4.75,13.76,47.59359,-54.27349
2020-12-01 14:54:01+00:00,177.0,5.18,177.0,6.05,13.76,47.59359,-54.27349
2020-12-01 15:04:01+00:00,173.0,4.95,174.0,5.54,13.76,47.59359,-54.27349
2020-12-01 15:14:01+00:00,169.0,5.24,168.0,5.86,13.84,47.59359,-54.27349
2020-12-01 15:24:01+00:00,176.0,4.43,179.0,5.07,13.84,47.59359,-54.27349
2020-12-01 15:34:01+00:00,180.0,6.34,179.0,6.84,13.84,47.59359,-54.27349
2020-12-01 15:44:01+00:00,175.0,5.79,173.0,6.14,13.84,47.59359,-54.27349
2020-12-01 15:54:01+00:00,170.0,4.52,172.0,5.18,13.84,47.59359,-54.27349
2020-12-01 16:04:01+00:00,178.0,4.5,183.0,5.64,13.84,47.59359,-54.27349
2020-12-01 16:14:01+00:00,182.0,5.9,184.0,6.67,14.24,47.59359,-54.27349
2020-12-01 16:24:01+00:00,186.0,5.77,187.0,7.06,14.24,47.59359,-54.27349
2020-12-01 16:34:01+00:00,185.0,6.68,190.0,8.06,14.24,47.59359,-54.27349
2020-12-01 16:44:01+00:00,177.0,6.28,174.0,7.14,14.24,47.59359,-54.27349
2020-12-01 16:54:01+00:00,181.0,6.96,180.0,8.77,14.24,47.59359,-54.27349
2020-12-01 17:04:01+00:00,183.0,8.2,181.0,9.31,14.24,47.59359,-54.27349
2020-12-01 17:14:01+00:00,186.0,6.99,185.0,7.96,14.16,47.59359,-54.27349
2020-12-01 17:24:01+00:00,181.0,8.18,177.0,9.48,14.16,47.59359,-54.27349
2020-12-01 17:34:01+00:00,190.0,7.12,190.0,8.51,14.16,47.59359,-54.27349
2020-12-01 17:44:01+00:00,191.0,7.75,195.0,9.33,14.16,47.59359,-54.27349
2020-12-01 17:54:01+00:00,189.0,8.32,191.0,8.94,14.16,47.59359,-54.27349
2020-12-01 18:04:01+00:00,190.0,8.12,191.0,9.37,14.16,47.59359,-54.27349
2020-12-01 18:14:01+00:00,188.0,7.62,190.0,9.1,14.24,47.59359,-54.27349
2020-12-01 18:24:01+00:00,193.0,7.24,203.0,8.3,14.24,47.59359,-54.27349
2020-12-01 18:34:01+00:00,187.0,6.18,181.0,6.97,14.24,47.59359,-54.27349
2020-12-01 18:44:01+00:00,184.0,5.86,183.0,7.07,14.24,47.59359,-54.27349
2020-12-01 18:54:01+00:00,177.0,4.9,187.0,5.42,14.24,47.59359,-54.27349
2020-12-01 19:04:01+00:00,172.0,4.15,179.0,4.88,14.24,47.59359,-54.27349
2020-12-01 19:14:01+00:00,179.0,3.81,181.0,4.05,13.68,47.59359,-54.27349
2020-12-01 19:24:01+00:00,170.0,3.9,173.0,4.19,13.68,47.59359,-54.27349
2020-12-01 19:34:01+00:00,185.0,4.65,188.0,5.1,13.68,47.59359,-54.27349
2020-12-01 19:44:01+00:00,181.0,4.4,181.0,4.98,13.68,47.59359,-54.27349
2020-12-01 19:54:01+00:00,175.0,3.51,176.0,3.73,13.68,47.59359,-54.27349
2020-12-01 20:04:01+00:00,164.0,3.46,164.0,4.43,13.68,47.59359,-54.27349
2020-12-01 20:14:01+00:00,173.0,5.64,175.0,6.81,12.81,47.59359,-54.27349
2020-12-01 20:24:01+00:00,178.0,7.78,178.0,9.28,12.81,47.59359,-54.27349
2020-12-01 20:34:01+00:00,175.0,5.53,178.0,5.95,12.81,47.59359,-54.27349
2020-12-01 20:44:01+00:00,173.0,6.31,168.0,7.09,12.81,47.59359,-54.27349
2020-12-01 20:54:01+00:00,190.0,8.24,190.0,9.79,12.81,47.59359,-54.27349
2020-12-01 21:04:01+00:00,181.0,8.71,178.0,10.67,12.81,47.59359,-54.27349
2020-12-01 21:14:01+00:00,177.0,8.26,179.0,9.3,12.73,47.59359,-54.27349
2020-12-01 21:24:01+00:00,174.0,8.05,174.0,8.82,12.73,47.59359,-54.27349
2020-12-01 21:34:01+00:00,174.0,8.37,172.0,9.54,12.73,47.59359,-54.27349
2020-12-01 21:44:01+00:00,173.0,8.93,174.0,10.37,12.73,47.59359,-54.27349
2020-12-01 21:54:01+00:00,171.0,7.55,174.0,8.21,12.73,47.59359,-54.27349
2020-12-01 22:04:01+00:00,174.0,9.41,176.0,10.39,12.73,47.59359,-54.27349
2020-12-01 22:14:01+00:00,175.0,8.0,177.0,8.72,12.65,47.59359,-54.27349
2020-12-01 22:24:01+00:00,172.0,7.69,169.0,8.76,12.65,47.59359,-54.27349
2020-12-01 22:34:01+00:00,175.0,8.13,177.0,8.92,12.65,47.59359,-54.27349
2020-12-01 22:44:01+00:00,174.0,6.78,172.0,7.53,12.65,47.59359,-54.27349
2020-12-01 22:54:01+00:00,171.0,5.21,169.0,5.56,12.65,47.59359,-54.27349
2020-12-01 23:04:01+00:00,172.0,5.7,169.0,6.38,12.65,47.59359,-54.27349
2020-12-01 23:14:01+00:00,167.0,5.34,167.0,6.18,12.65,47.59359,-54.27349
2020-12-01 23:24:01+00:00,173.0,5.9,176.0,6.46,12.65,47.59359,-54.27349
2020-12-01 23:34:01+00:00,183.0,5.64,179.0,6.21,12.65,47.59359,-54.27349
2020-12-01 23:44:01+00:00,183.0,4.63,188.0,4.9,12.65,47.59359,-54.27349
2020-12-01 23:54:01+00:00,188.0,5.05,188.0,5.52,12.65,47.59359,-54.27349
